Location: Bouillancy
(49.1149°N, 2.9308°E)
Time: 08:34:32
(UTC+00:00)

Meteor 1-24 Rocket - Pass Details

Date: 30 September 2020
Orbit: 790 x 927 km, 81.2° (Epoch: 29 October)

Event Time Altitude Azimuth Distance (km) Brightness Sun altitude
Rises 18:52:35 0° 347° (NNW) 3,418 7.2 -14.5°
Reaches altitude 10° 18:54:59 10° 348° (NNW) 2,498 6.5 -14.9°
Maximum altitude 19:00:41 90° 63° (ENE) 886 3.8 -15.8°
Drops below altitude 10° 19:06:34 10° 170° (S) 2,571 6.0 -16.8°
Sets 19:09:03 0° 171° (S) 3,523 6.7 -17.2°
